Location: Moscow Pond
(43.6842°N, 73.2366°W)
Time: 00:08:52
(UTC+00:00)

Cosmos 1140 Rocket - Pass Details

Date: 08 November 2025
Orbit: 740 x 761 km, 74.1° (Epoch: 05 December)

Event Time Altitude Azimuth Distance (km) Brightness Sun altitude
Exits shadow 09:15:48 23° 354° (N) 1,543 5.0 -26.0°
Maximum altitude 09:18:53 58° 66° (ENE) 862 3.9 -25.4°
Drops below altitude 10° 09:23:53 10° 146° (SE) 2,245 6.3 -24.5°
Sets 09:26:16 0° 150° (SSE) 3,163 7.1 -24.1°
